Home   Weather   Zweibrücken   Past weeks

Flag for Germany Past Weather in Zweibrücken, Rhineland-Palatinate, Germany — Yesterday and Last 2 Weeks

Now
36 °F

Sunny.


Feels Like: 27 °F
Forecast: 18 / 36 °F
Wind: 12 mph from East

Location: Saarbruecken / Ensheim

Current Time: Dec 4, 2016 at 1:27:09 pm

Latest Report: Dec 4, 2016 at 12:50 pm


Visibility: 10 mi

Pressure: 30.24 "Hg

Humidity: 70%

Dew Point: 27 °F

Location of ZweibrückenLocation

Past Weather in Zweibrücken — Graph

°F

Zweibrücken Temperature Yesterday

Maximum temperature yesterday: 39 °F (at 1:20 pm)
Minimum temperature yesterday: 28 °F (at 7:50 am)
Average temperature yesterday: 33 °F

High & Low Weather Summary for the Past Weeks

 TemperatureHumidityPressure
High57 °F (Nov 20, 2:50 pm)100% (Nov 21, 9:50 pm)30.54 "Hg (Nov 21, 9:50 pm)
Low19 °F (Nov 30, 6:50 am)48% (Nov 29, 1:20 pm)29.53 "Hg (Nov 20, 8:50 am)
Average40 °F81%30.07 "Hg
* Reported Nov 19 12:20 pm — Dec 4 12:20 pm, Zweibrücken, Weather by CustomWeather, © 2016

Note: Actual official high and low records may vary slightly from our data, if they occured in-between our weather recording intervals... More about our weather records

Advertising

Zweibrücken Weather History for the Previous 24 Hours

Scroll right to see more
 ConditionsComfort  
Time TempWeatherWind HumidityBarometerVisibility
12:20 pm
Sun, Dec 4
34 °FPassing clouds.12 mph70%30.24 "HgN/A
11:50 am32 °FSunny.13 mph75%30.24 "Hg10 mi
11:20 am32 °FSunny.12 mph75%30.27 "Hg10 mi
10:50 am30 °FSunny.12 mph80%30.27 "Hg10 mi
10:20 am30 °FPassing clouds.10 mph75%30.27 "HgN/A
9:50 am28 °FSunny.9 mph80%30.27 "Hg10 mi
9:20 am27 °FPassing clouds.8 mph86%30.24 "HgN/A
8:50 am27 °FPassing clouds.6 mph80%30.24 "HgN/A
8:20 am25 °FPassing clouds.8 mph86%30.24 "HgN/A
7:50 am27 °FClear.12 mph80%30.24 "Hg10 mi
7:20 am25 °FClear.10 mph86%30.24 "Hg10 mi
6:50 am25 °FClear.9 mph86%30.21 "Hg10 mi
6:20 am25 °FClear.9 mph86%30.21 "Hg10 mi
5:50 am27 °FClear.9 mph80%30.21 "Hg10 mi
5:20 am27 °FClear.10 mph80%30.21 "Hg10 mi
4:50 am27 °FClear.10 mph80%30.21 "Hg10 mi
4:20 am27 °FClear.12 mph80%30.21 "Hg10 mi
3:50 am27 °FClear.9 mph80%30.21 "Hg10 mi
3:20 am27 °FClear.9 mph80%30.21 "HgN/A
2:50 am27 °FClear.8 mph80%30.24 "HgN/A
2:20 am27 °FClear.10 mph86%30.21 "HgN/A
1:50 am27 °FClear.12 mph86%30.21 "HgN/A
1:20 am28 °FClear.13 mph80%30.21 "HgN/A
12:20 am28 °FClear.13 mph80%30.21 "HgN/A
11:50 pm
Sat, Dec 3
28 °FClear.13 mph80%30.21 "HgN/A
11:20 pm28 °FClear.12 mph80%30.21 "HgN/A
10:50 pm28 °FClear.10 mph80%30.21 "Hg10 mi
10:20 pm30 °FClear.10 mph75%30.21 "Hg10 mi
9:50 pm30 °FClear.13 mph75%30.21 "Hg10 mi
9:20 pm30 °FClear.13 mph75%30.21 "Hg10 mi
8:50 pm30 °FClear.13 mph80%30.21 "Hg10 mi
8:20 pm30 °FClear.15 mph80%30.21 "Hg10 mi
7:50 pm30 °FClear.13 mph75%30.21 "Hg10 mi
7:20 pm30 °FClear.15 mph80%30.21 "Hg10 mi
6:50 pm32 °FClear.12 mph75%30.18 "Hg10 mi
6:20 pm32 °FClear.10 mph75%30.18 "Hg10 mi
5:50 pm32 °FClear.10 mph69%30.18 "Hg10 mi
5:20 pm34 °FClear.12 mph65%30.18 "Hg10 mi
4:50 pm34 °FClear.12 mph70%30.18 "Hg10 mi
4:20 pm36 °FSunny.12 mph65%30.18 "Hg10 mi
3:50 pm37 °FSunny.10 mph60%30.18 "Hg10 mi
3:20 pm37 °FPassing clouds.10 mph60%30.18 "HgN/A
2:50 pm37 °FSunny.13 mph65%30.18 "Hg10 mi
2:20 pm39 °FSunny.13 mph61%30.18 "Hg10 mi
1:50 pm39 °FSunny.12 mph61%30.18 "Hg10 mi
1:20 pm39 °FSunny.12 mph61%30.18 "Hg10 mi
Weather by CustomWeather, © 2016

See weather overviewHow to use our weather pages